Theta_e
343 344 349 355 355 356 355 354 353 353 353 353 353 353 352 352 353 353 352 353 353 354 354 354 354 354 353 353 353 352 352 352 352 352 352 352 352 352 352 351 351 351 351 354 354 353 353 352 352 351 352 351 351 351 350 350 350 350 350 350 350 350 351 350 350 350 349 349 349 348 348 349 350 350 349 348 347 346 345 344 343 341 342 341 341
343 347 350 353 356 356 355 354 353 353 353 353 353 353 352 352 352 352 353 353 353 354 354 353 353 353 353 353 352 352 352 351 351 351 351 352 352 352 352 352 351 351 352 352 352 352 352 351 351 351 351 351 351 351 350 350 350 350 350 350 350 350 349 350 350 350 350 350 349 349 350 350 349 348 348 348 347 346 345 344 343 343 342 341 341
346 348 350 353 356 355 354 353 352 353 353 352 352 352 351 352 353 353 353 354 354 354 354 353 353 353 352 353 352 352 351 351 351 351 353 353 352 353 352 351 351 351 351 351 351 350 350 350 350 350 350 350 350 351 350 350 350 350 350 350 350 350 349 349 349 349 349 348 348 348 348 348 348 348 347 347 345 344 343 342 342 340 338 340 341
345 347 350 353 356 355 353 352 352 353 352 352 352 352 353 353 353 354 353 354 354 353 353 353 353 353 353 353 352 352 351 351 351 351 351 353 352 353 352 351 351 350 350 350 349 349 350 350 350 349 349 348 348 347 348 348 348 348 349 349 349 349 349 348 346 346 346 345 345 345 346 339 343 345 346 345 344 343 341 341 341 340 340 340 340
345 348 349 351 352 354 353 352 352 352 353 352 352 352 353 353 354 354 354 354 353 353 354 353 353 353 353 352 352 351 351 350 350 350 350 352 352 352 352 352 351 350 350 350 349 349 350 350 350 349 349 348 348 347 346 347 347 347 347 348 348 348 348 348 348 346 345 344 345 344 339 339 338 344 344 343 343 343 341 339 338 339 338 338 338
346 347 349 351 351 352 353 352 352 352 353 352 352 352 353 353 353 354 354 354 354 353 354 354 353 353 352 352 352 351 350 350 349 349 350 352 352 352 352 351 350 350 349 349 349 349 349 350 350 350 349 349 348 348 347 347 346 346 347 346 346 346 346 347 346 347 347 345 344 342 339 339 342 342 343 343 343 343 342 342 342 339 338 338 338
346 347 349 350 351 351 353 352 352 352 352 351 352 353 353 353 353 354 354 354 353 353 353 353 353 352 352 351 351 351 351 350 350 350 350 350 352 352 351 351 350 350 349 349 349 349 349 349 349 349 350 349 349 347 347 346 347 346 347 347 346 346 346 345 346 346 345 347 342 342 341 340 340 337 344 341 342 342 343 342 339 339 339 337 337
346 347 349 350 350 352 353 352 351 351 352 351 352 353 353 354 354 353 354 353 353 353 353 353 352 351 351 351 350 351 351 351 351 350 350 350 351 350 351 350 351 349 347 347 346 347 349 349 349 349 349 349 347 347 347 346 346 347 347 347 346 346 347 346 347 348 348 347 342 340 338 339 340 339 346 341 341 342 342 342 339 338 339 338 336
345 347 349 350 351 354 352 352 351 351 352 352 353 353 353 353 353 353 354 353 353 353 353 352 351 350 350 350 350 350 350 350 350 350 349 349 349 349 349 349 350 350 348 347 346 345 347 349 349 348 349 347 347 346 346 346 346 347 347 347 347 347 347 348 348 346 345 342 341 341 337 339 340 339 346 342 341 341 340 341 343 340 337 336 337
346 348 349 349 350 353 352 352 352 352 351 352 352 352 353 353 353 353 353 353 353 352 352 351 350 350 350 349 349 348 349 349 350 350 349 349 348 348 348 349 349 349 350 348 346 345 346 347 348 348 348 347 346 346 347 346 347 347 346 347 347 347 348 348 345 343 341 339 337 339 338 342 340 339 343 343 341 341 342 342 341 339 339 338 337
346 348 349 349 350 353 352 352 352 351 351 352 352 353 353 353 354 353 353 353 352 351 351 350 350 349 348 348 348 347 347 348 348 348 349 349 349 349 348 348 348 349 349 348 347 347 346 346 346 346 346 346 347 346 347 347 347 347 347 347 347 347 348 346 343 337 336 334 335 338 341 344 339 339 344 343 343 342 341 341 340 338 339 339 337
346 347 348 349 352 352 352 352 352 351 352 352 352 353 354 353 353 353 353 352 352 351 351 349 349 347 346 347 347 346 346 346 346 347 347 348 348 348 348 349 350 348 348 347 347 346 346 345 344 345 344 345 345 346 347 347 347 347 347 346 347 347 347 346 340 336 333 335 337 338 340 343 338 338 344 344 343 341 341 340 340 340 338 339 338
345 346 348 349 349 352 352 352 351 352 352 352 353 353 353 353 353 353 353 352 351 350 349 348 347 346 345 345 346 346 346 345 345 345 346 346 347 347 347 347 348 347 347 346 345 346 346 345 343 342 344 345 345 345 346 346 347 347 347 347 347 347 347 345 340 336 335 336 339 341 339 340 339 342 344 345 344 342 342 341 340 340 339 338 339
344 346 348 349 349 352 352 351 351 352 352 352 353 353 353 353 353 352 351 351 350 349 347 347 346 345 345 345 345 344 344 344 344 344 345 345 345 346 347 346 346 345 345 344 345 345 345 345 344 344 344 345 344 344 345 346 346 346 345 345 346 346 347 344 343 336 339 338 342 338 338 340 338 342 345 345 343 343 342 342 341 341 339 339 338
343 346 347 347 349 348 352 351 352 352 352 353 353 353 353 353 352 351 351 350 349 348 347 346 346 345 345 345 344 344 344 343 343 343 343 343 343 344 344 345 345 345 344 342 343 344 346 345 345 344 345 345 344 345 345 345 345 344 344 344 344 344 344 338 341 337 336 339 339 342 338 338 340 342 345 346 344 343 343 342 341 341 340 339 338
345 346 347 346 348 349 349 352 352 352 352 353 353 353 353 352 352 351 350 349 348 348 347 347 346 345 345 344 344 343 343 342 342 342 341 342 342 342 343 344 345 344 344 342 342 343 344 344 345 345 345 345 345 345 344 345 345 344 344 343 343 342 343 345 336 337 335 335 337 341 337 337 341 343 344 346 346 344 343 343 342 341 340 339 338
346 347 345 345 347 347 348 349 351 353 352 352 352 353 352 351 351 351 350 349 348 348 347 346 346 345 344 344 344 344 343 342 342 341 341 341 341 340 341 341 342 343 343 343 342 343 344 344 345 345 345 345 345 345 345 344 344 344 344 343 343 343 343 346 334 336 335 337 338 338 337 336 340 343 345 346 346 345 344 344 343 342 342 340 339
345 345 344 344 345 346 348 348 350 349 350 352 353 352 351 351 351 351 350 348 347 347 347 346 345 345 345 345 345 344 343 343 342 341 341 340 339 339 339 340 340 341 341 342 342 343 343 343 343 345 345 345 345 345 345 345 344 344 344 344 343 343 342 343 333 336 335 341 340 339 338 339 340 343 345 346 346 346 345 344 344 343 342 340 339
344 344 344 343 344 346 347 348 348 348 349 349 349 351 351 351 351 351 349 348 348 348 347 346 346 346 346 345 345 345 344 345 344 343 342 341 341 340 339 339 339 338 339 340 341 341 342 342 343 344 344 344 344 344 344 345 344 344 344 344 343 344 341 336 334 334 335 336 338 338 337 340 342 343 345 347 346 346 345 345 344 343 341 341 340
342 343 342 342 343 345 346 347 348 349 349 348 348 349 351 351 351 351 350 348 347 348 348 346 346 346 346 346 345 345 345 343 345 342 343 343 343 341 341 340 339 339 339 340 340 340 342 342 342 343 343 344 345 344 345 345 345 344 343 343 343 343 332 329 330 331 333 334 340 337 338 341 343 344 346 347 347 347 346 344 344 343 342 342 341
340 341 340 342 343 345 346 347 348 349 349 348 347 347 349 351 350 350 349 348 348 348 346 347 346 346 347 346 343 336 334 335 335 337 345 342 344 343 343 343 342 342 342 341 341 342 343 344 344 345 345 346 346 346 345 344 343 343 343 343 343 334 329 328 329 331 334 334 338 338 340 342 344 345 346 347 347 347 346 345 344 343 343 343 342
337 339 340 343 344 345 346 347 348 348 348 348 348 347 349 349 347 347 346 345 346 347 344 342 346 339 347 341 339 344 335 332 336 345 342 344 344 345 344 344 344 343 344 344 344 344 345 346 346 346 346 346 346 343 339 339 340 341 342 342 336 328 329 329 329 330 334 333 337 336 341 343 345 346 347 347 347 348 347 346 345 344 343 343 343
335 337 339 343 344 345 346 346 347 348 348 348 347 347 347 347 346 344 345 347 346 345 340 343 337 337 338 341 343 339 337 340 341 344 346 347 346 347 346 346 345 345 345 345 346 346 346 346 346 345 344 344 341 338 337 336 335 339 339 334 330 330 330 330 331 332 333 333 338 339 341 343 344 345 347 348 348 348 348 347 346 346 344 344 344
333 336 339 343 343 344 345 345 347 347 347 346 347 347 347 346 346 346 343 342 340 342 340 339 338 339 340 342 342 342 341 338 345 349 350 343 344 346 346 347 347 346 347 345 343 342 344 343 342 342 341 339 337 337 337 337 337 336 335 334 334 333 332 332 332 333 335 336 337 340 342 343 344 345 346 347 348 349 349 348 348 347 345 344 344
334 336 338 340 342 344 344 345 347 347 346 346 346 346 347 347 346 346 344 341 340 340 340 339 338 338 339 342 342 343 341 340 339 340 340 339 341 341 340 340 340 339 343 340 339 338 338 337 337 338 336 337 337 337 337 337 338 337 336 336 335 335 334 334 335 335 336 336 337 340 342 343 344 346 347 347 347 349 348 348 348 346 345 345 344
334 335 337 339 340 344 344 345 346 346 346 346 346 346 346 345 345 345 344 342 341 340 340 341 341 341 339 343 344 342 340 339 338 336 338 337 337 339 339 338 338 338 340 339 338 338 338 337 337 336 337 337 337 337 337 338 336 336 336 336 336 335 335 336 336 336 337 337 337 342 343 344 345 346 347 347 348 346 347 347 345 344 344 346 343
331 333 339 338 339 343 343 345 345 345 346 346 346 345 345 346 345 344 343 342 342 341 341 341 342 342 340 343 342 340 338 337 337 335 335 336 337 336 336 336 336 336 338 339 338 337 336 336 336 336 335 336 337 337 337 337 336 335 336 336 336 336 336 335 335 335 336 336 337 340 341 343 345 344 344 346 347 348 348 347 341 342 342 343 343
331 333 337 338 339 341 343 345 344 344 345 346 345 345 345 345 345 344 343 342 342 341 341 341 341 342 343 342 344 338 337 337 336 335 335 334 336 336 334 333 334 335 337 338 337 337 335 334 334 334 335 335 335 336 336 336 336 335 335 336 336 335 335 335 335 334 334 334 334 336 340 342 343 343 344 345 346 347 348 349 345 343 343 343 344
329 333 336 336 338 341 342 343 344 344 344 345 344 344 344 344 344 344 342 344 342 341 341 341 340 340 341 342 343 339 336 335 334 334 334 335 335 336 336 335 335 336 337 336 336 335 335 334 333 333 333 333 333 333 336 335 334 334 334 334 334 333 333 333 333 333 334 335 334 335 338 340 341 341 342 343 344 345 347 346 346 345 344 342 341
329 332 334 335 337 340 341 342 343 343 343 344 343 343 343 342 343 343 342 343 341 341 342 340 337 334 334 336 337 339 336 335 334 336 335 336 336 337 337 335 335 334 333 334 335 334 333 333 334 333 333 332 332 333 334 332 332 333 332 333 332 332 332 332 332 333 333 333 334 335 337 339 340 340 340 341 343 345 345 346 345 344 344 342 342
330 330 333 335 336 338 339 341 342 343 342 342 342 342 342 341 342 343 342 342 341 340 337 335 333 332 332 332 335 338 337 335 335 334 334 335 335 334 333 332 334 335 335 333 334 335 333 333 333 333 332 331 331 331 331 331 330 330 331 331 331 331 331 331 332 332 332 333 333 334 334 338 338 338 340 340 342 344 346 345 344 343 342 343 342
328 329 332 334 335 337 338 340 341 341 341 341 341 340 340 340 341 341 340 340 339 336 335 334 336 329 333 334 337 340 341 337 337 335 335 336 334 333 332 334 334 334 334 333 333 333 333 332 332 332 331 330 329 330 331 329 329 329 330 330 330 330 330 331 331 331 332 332 332 333 334 335 336 337 338 339 339 340 342 342 343 343 342 342 342
329 330 331 333 334 336 337 339 339 340 339 339 340 340 339 339 339 338 337 337 337 335 333 331 330 333 335 333 334 336 338 336 335 335 336 332 331 332 335 336 335 333 332 332 332 331 330 330 331 330 331 329 328 328 329 329 328 329 329 329 330 329 330 330 331 331 331 331 331 332 332 334 335 334 335 336 336 337 338 339 340 341 341 341 340
328 330 331 331 334 335 337 337 337 338 337 336 336 336 336 336 337 336 337 335 333 333 334 332 335 334 333 333 334 337 336 337 335 333 332 334 334 335 335 334 333 332 331 331 330 329 328 328 329 327 330 327 326 326 327 327 328 328 329 329 329 329 329 329 330 330 330 330 330 330 331 331 332 333 334 333 334 334 335 337 338 340 340 341 341
330 329 330 331 333 333 336 335 337 334 337 334 335 335 335 336 334 334 334 334 333 333 332 332 332 332 332 333 335 338 337 337 336 334 333 333 333 332 332 333 333 333 331 330 329 328 327 326 328 327 325 326 325 327 327 325 326 327 328 328 328 328 328 328 329 329 328 328 329 328 329 330 331 331 331 331 332 333 334 335 337 337 338 339 339
330 330 331 331 331 332 334 333 334 333 334 334 334 335 335 333 333 337 333 333 333 332 331 331 331 331 333 333 336 338 335 336 336 334 332 332 331 331 332 333 333 331 328 328 329 327 326 325 326 325 325 325 325 325 326 325 325 326 327 327 327 329 327 327 328 328 328 328 327 327 328 328 330 331 331 330 330 331 333 334 334 335 336 337 338
331 331 331 331 331 332 335 332 332 332 333 333 333 333 333 332 332 333 332 332 332 331 331 331 331 331 331 333 335 337 335 335 334 333 331 330 330 330 331 330 330 328 327 326 326 326 325 325 325 327 324 323 323 324 325 325 325 326 326 326 326 327 326 327 328 327 327 326 326 326 326 327 329 330 329 329 329 329 330 332 333 333 334 335 336
332 333 333 332 332 333 333 332 332 333 333 333 333 332 332 332 332 332 334 332 332 332 332 331 331 331 332 332 334 336 336 334 333 332 330 331 329 328 328 328 327 326 325 325 325 324 323 323 324 324 325 323 324 324 323 324 325 325 325 325 325 325 326 327 327 328 326 325 326 324 325 326 327 327 327 327 327 328 327 328 330 331 332 333 334
333 333 333 333 333 333 333 334 332 332 332 332 333 333 332 331 331 331 331 331 332 331 331 330 331 331 331 332 334 335 334 332 332 332 329 329 329 329 327 326 326 325 325 324 324 325 325 322 323 323 324 324 325 324 323 323 324 323 323 324 324 325 325 326 326 326 325 325 325 325 325 325 325 326 325 325 326 325 324 325 326 327 327 329 330
332 333 333 333 333 333 332 333 332 332 332 332 332 332 331 331 330 331 330 330 331 332 331 330 330 331 332 333 333 333 332 331 330 329 329 328 327 326 326 326 326 325 325 324 324 323 323 322 323 325 322 323 324 324 323 322 322 320 322 322 323 324 325 324 325 324 325 324 323 324 323 324 323 322 321 322 322 321 320 322 324 323 324 325 327
331 332 332 332 332 333 332 331 332 333 332 331 331 330 329 329 330 330 329 329 330 331 330 329 330 331 332 333 332 332 331 331 330 330 329 331 326 326 326 325 326 326 325 323 322 324 325 324 323 323 323 321 321 323 322 322 319 319 320 319 319 321 324 323 323 323 323 323 323 323 323 323 320 317 317 319 319 319 318 318 319 320 321 321 322
330 331 331 331 332 332 332 331 332 332 332 332 332 331 331 331 329 328 329 330 330 328 327 328 330 332 332 331 330 329 329 329 330 328 327 326 326 325 325 324 325 325 325 326 326 327 323 323 321 321 322 321 320 321 321 320 318 316 315 316 316 318 320 320 321 322 322 323 322 322 322 323 319 316 316 314 315 316 316 316 316 317 318 318 319
330 331 331 330 331 331 331 332 332 332 332 333 332 331 329 330 329 328 330 328 329 329 329 331 332 329 329 329 329 328 328 328 328 328 326 326 325 325 323 323 323 326 323 322 322 323 322 322 321 320 320 320 320 321 320 320 316 317 316 316 314 313 315 316 318 320 320 321 321 321 322 322 320 317 315 313 311 312 313 314 314 314 315 315 316
330 330 330 330 330 331 330 332 332 332 332 334 333 332 331 329 330 330 328 328 328 331 329 328 328 327 326 327 327 327 327 327 327 327 326 325 325 324 323 323 322 323 322 322 322 322 322 322 321 322 318 316 316 317 320 319 318 317 313 313 315 312 307 311 314 316 317 320 319 319 321 322 322 318 315 312 310 310 310 311 312 313 312 313 314
330 331 331 330 331 330 331 332 332 333 333 334 333 332 331 329 329 329 330 329 329 327 326 325 326 328 326 325 325 327 327 327 326 326 327 324 323 323 323 322 322 322 323 322 321 321 321 321 320 320 318 315 315 315 317 319 317 319 318 314 311 309 308 312 312 312 315 318 318 319 320 321 320 318 315 312 312 310 309 309 310 311 311 311 311
330 331 332 330 330 330 331 332 332 333 333 333 333 332 330 328 327 327 326 326 324 323 323 323 324 323 323 324 326 326 327 326 326 326 326 325 323 322 322 322 322 323 322 321 320 320 320 319 319 319 318 318 315 314 314 318 318 318 317 317 315 311 310 312 311 308 316 315 316 318 318 319 320 317 316 313 310 309 308 307 308 308 309 309 309
330 332 331 329 330 331 331 332 332 332 333 333 333 331 329 329 328 327 327 326 325 323 325 325 324 323 324 324 324 325 325 325 324 324 324 324 323 322 322 322 322 323 323 320 319 319 319 319 319 318 317 317 316 313 312 313 314 316 316 315 317 317 318 313 308 311 307 313 315 315 316 317 319 316 315 313 311 309 307 307 307 307 308 308 307
330 331 330 330 331 331 331 332 332 332 332 332 332 331 329 328 327 327 327 326 326 325 325 324 324 325 324 324 324 323 324 324 323 323 323 324 322 321 322 322 322 323 323 319 318 318 318 318 318 317 317 316 315 313 311 312 311 311 315 313 314 315 314 314 313 311 310 307 309 315 316 316 317 317 313 310 309 310 307 306 306 305 306 307 307
330 330 330 331 331 331 332 332 332 332 332 332 331 330 330 328 328 327 326 326 326 325 326 327 324 324 323 322 322 322 322 322 322 322 322 323 324 321 321 321 321 321 322 319 318 317 316 315 314 314 313 313 314 313 311 310 310 309 310 310 311 311 312 312 311 312 311 307 307 309 310 315 315 315 314 311 307 308 309 306 305 305 305 305 306
331 331 331 332 331 331 331 331 331 332 331 331 331 329 329 328 327 327 326 326 326 324 324 323 322 322 321 321 321 321 320 320 320 320 320 320 320 321 321 321 320 321 320 317 316 315 314 313 313 313 312 311 311 312 310 309 308 308 307 307 306 307 308 308 308 307 311 311 306 307 309 309 308 310 313 310 308 305 308 307 304 304 304 304 305
331 331 331 332 332 331 331 331 332 332 331 330 329 327 328 328 327 326 326 325 324 323 322 322 321 321 320 319 319 319 319 319 320 319 319 320 321 323 321 320 321 321 318 316 315 314 313 312 311 311 310 310 309 309 308 308 307 306 305 305 304 304 304 304 304 305 307 307 307 307 308 309 309 307 310 308 308 305 304 307 303 303 303 304 304
Wind_Speed
11 12 10 16 17 20 20 20 19 19 18 17 17 17 17 16 15 15 15 15 15 15 15 15 15 15 15 15 15 15 13 13 12 12 11 11 11 11 11 11 11 12 11 12 12 13 12 11 11 11 11 11 12 11 11 12 11 12 12 11 11 11 11 11 11 11 11 10 10 9 9 9 9 9 9 8 8 8 7 7 7 5 3 5 7
18 12 10 13 18 19 20 20 20 20 19 18 17 17 17 16 15 15 15 15 15 15 15 15 15 15 15 15 15 14 13 12 12 12 11 11 11 12 12 12 12 10 12 12 13 12 11 10 10 10 10 10 10 10 10 10 11 11 11 10 10 10 10 10 10 10 10 10 10 10 10 9 9 8 8 8 7 7 7 7 7 3 1 6 6
12 12 10 13 20 20 20 20 20 20 20 18 18 17 17 16 15 14 14 15 15 15 15 15 15 15 15 15 15 14 12 12 12 11 12 11 12 12 12 12 12 11 13 13 11 10 9 9 9 9 9 10 10 10 9 9 10 10 10 10 9 9 9 9 9 8 9 9 9 9 8 8 8 7 7 7 6 6 6 6 6 5 4 6 6
12 9 9 15 20 19 20 20 20 20 20 19 18 18 17 16 15 14 15 15 15 15 15 15 14 14 14 14 14 13 12 11 11 11 12 12 11 12 12 12 12 12 12 11 10 10 9 8 8 8 9 9 10 10 9 9 9 8 9 9 9 8 8 8 8 7 7 8 8 6 3 4 4 5 6 6 6 6 5 5 5 5 6 5 5
10 9 9 11 12 17 19 20 20 20 20 19 18 17 17 16 15 15 14 14 14 14 14 14 14 14 14 14 14 13 12 11 10 10 11 12 11 11 12 12 12 12 12 11 10 10 10 9 9 8 8 9 10 10 9 8 8 7 7 7 7 7 6 6 6 6 5 6 7 5 3 3 3 3 4 5 5 5 5 5 5 5 4 4 4
10 9 8 9 9 12 18 19 20 20 20 20 19 18 17 16 16 15 14 14 14 14 14 14 14 13 14 13 13 13 11 10 10 10 9 9 9 9 11 12 12 11 11 10 10 10 10 10 9 9 8 8 9 9 8 8 7 7 6 6 6 5 5 3 1 1 1 2 5 3 3 2 2 1 3 3 4 4 5 5 5 4 3 3 3
11 8 8 8 8 11 18 18 19 20 20 19 18 18 17 16 16 15 14 14 13 14 14 13 13 13 13 13 13 12 11 10 9 8 8 7 9 9 10 11 11 11 10 10 10 10 10 10 9 9 9 9 9 8 8 8 7 7 6 5 5 4 3 2 1 3 3 4 2 2 3 2 1 1 2 4 4 4 5 4 3 3 3 2 2
8 7 9 9 8 13 18 17 19 20 20 20 19 18 17 16 15 14 14 14 13 13 13 13 13 13 13 12 12 12 11 10 9 9 9 9 8 8 8 10 11 10 10 9 9 9 9 10 10 9 9 9 9 8 8 7 7 6 5 5 4 3 2 2 3 4 6 4 3 3 3 3 3 2 3 4 4 4 4 3 3 2 2 2 1
7 8 9 9 9 18 16 16 17 19 20 20 18 17 17 16 15 14 14 13 13 13 13 13 13 12 11 11 11 11 11 10 9 9 9 9 10 8 7 8 9 9 9 8 8 8 9 9 10 9 9 9 8 8 7 6 6 5 5 5 4 4 4 4 4 6 4 3 3 3 4 3 3 3 3 5 4 5 4 4 2 3 2 2 2
8 7 7 7 8 18 17 15 15 18 19 19 18 18 17 16 15 14 14 14 13 13 12 12 12 11 11 10 10 11 10 9 9 9 9 9 9 7 7 6 6 7 8 8 8 8 8 9 9 9 9 8 7 6 6 5 5 5 5 4 4 5 5 5 6 5 3 3 3 4 4 5 3 3 4 5 5 5 4 5 4 3 3 4 3
9 8 7 6 10 16 14 14 15 17 18 18 18 18 17 15 15 14 14 13 13 12 11 11 10 10 10 9 9 9 10 9 9 9 9 9 9 8 7 5 5 7 8 8 7 7 7 8 7 7 7 7 6 5 5 5 4 4 4 4 4 4 4 5 6 3 2 2 3 4 5 9 4 4 6 6 6 5 5 5 6 5 5 4 4
9 8 6 5 13 15 14 13 15 16 18 18 18 18 16 15 15 14 14 13 12 12 11 10 9 9 9 9 9 9 9 9 9 8 8 8 8 8 7 6 8 7 8 7 7 7 6 6 6 6 6 6 5 5 5 5 4 4 3 3 3 3 4 6 4 3 2 3 3 4 5 5 5 4 9 7 7 6 6 7 6 7 5 6 5
9 7 6 6 8 14 13 14 16 17 17 18 18 18 16 15 15 14 13 12 12 11 11 9 8 8 8 9 9 9 9 8 8 8 8 7 7 7 6 5 6 5 6 6 6 5 6 6 6 6 6 7 7 7 7 6 5 5 4 4 4 4 4 5 3 3 3 3 3 4 5 4 4 6 8 8 8 7 7 8 7 7 7 6 6
9 7 6 7 7 15 14 14 14 16 16 16 16 16 16 15 15 14 12 12 11 11 10 9 9 8 8 9 9 8 8 8 7 7 7 7 7 6 6 5 5 5 5 5 5 5 5 6 7 8 8 8 8 8 8 7 6 5 5 5 4 4 3 2 3 2 1 3 3 5 5 4 5 7 8 9 9 8 8 8 8 8 8 7 8
11 9 8 7 8 9 15 14 14 14 14 14 14 15 14 13 14 13 13 12 11 11 10 9 9 8 8 8 9 9 8 8 7 7 6 6 6 5 5 4 4 4 4 4 4 5 6 7 8 8 9 8 8 8 8 8 7 6 5 4 4 5 5 0 2 2 1 2 3 4 4 4 6 8 8 9 10 10 10 9 9 9 8 8 8
7 8 8 7 8 9 9 14 15 14 13 15 15 15 14 15 15 13 13 12 11 11 10 9 8 8 8 8 8 8 8 8 7 7 6 6 6 5 4 3 3 3 3 3 4 6 6 8 8 9 9 9 9 9 9 8 7 7 6 3 3 5 6 1 2 2 1 3 4 4 4 4 8 9 9 10 11 11 10 10 10 10 10 10 8
8 9 8 7 8 7 8 8 11 17 15 16 16 16 15 15 15 14 12 12 11 11 9 9 8 8 7 7 8 8 8 7 7 7 6 5 5 5 4 3 2 1 1 3 4 5 6 8 8 9 10 10 10 10 9 9 8 8 7 5 3 3 5 1 2 3 2 3 3 4 4 4 8 10 11 11 11 11 11 12 11 12 11 11 10
8 8 8 8 8 7 6 7 10 9 8 13 15 16 16 15 15 14 13 12 11 10 9 8 8 8 7 7 7 7 7 7 7 6 6 5 5 4 4 3 2 2 1 2 3 4 6 7 8 9 10 10 10 10 10 9 9 9 8 7 6 5 5 2 2 3 3 3 4 4 4 6 10 10 11 12 12 12 12 12 12 12 12 12 12
8 8 6 7 8 7 8 7 7 8 8 7 7 12 17 15 15 14 13 12 11 10 9 8 8 7 7 7 7 7 6 6 5 6 6 5 5 5 4 2 2 1 1 2 4 5 6 7 8 9 9 10 10 10 11 11 10 10 10 9 10 8 6 2 3 3 4 4 3 4 5 9 11 11 12 12 13 12 13 13 13 13 13 13 13
7 7 7 6 6 7 8 7 7 8 7 7 7 8 13 15 14 14 13 12 11 10 9 8 7 7 6 6 6 4 4 3 5 3 4 3 3 4 3 3 2 1 1 2 3 4 5 6 7 8 9 9 10 10 11 11 11 11 10 11 11 10 4 3 4 4 3 4 4 4 6 10 11 12 13 13 13 13 13 13 13 13 13 14 14
5 6 6 6 6 7 9 7 8 8 8 7 6 7 9 13 11 13 13 12 10 9 8 8 6 5 4 5 4 3 3 3 3 2 2 1 1 1 1 2 1 1 1 2 3 4 5 6 7 8 8 9 9 11 10 10 11 11 11 11 11 6 5 3 3 4 4 4 4 4 7 9 11 12 13 14 14 13 13 13 14 14 14 15 15
7 7 6 6 7 6 8 7 7 8 7 6 5 5 6 8 6 6 6 7 8 7 5 3 5 1 4 3 3 2 2 2 2 2 1 0 1 0 0 0 1 1 2 3 4 5 6 7 7 8 8 8 9 6 5 7 9 9 9 10 6 5 5 5 4 4 4 4 4 5 8 10 10 12 13 14 15 14 14 13 15 16 16 16 16
9 7 6 7 6 5 5 7 6 7 7 6 5 5 6 5 5 5 5 7 5 4 3 3 3 3 3 3 2 2 2 2 1 1 2 2 1 1 2 2 1 2 2 3 5 6 7 8 8 7 8 8 5 4 4 5 5 7 7 5 4 5 6 6 5 4 5 4 4 6 8 9 10 11 13 14 15 16 16 16 16 17 18 17 17
9 7 6 5 5 5 5 6 6 7 7 5 5 5 6 5 5 5 5 4 4 4 4 4 3 3 3 2 2 1 1 2 2 5 6 4 3 4 5 5 5 4 4 3 4 4 6 6 7 6 5 3 4 4 4 5 5 5 5 4 4 5 5 5 5 5 5 5 4 7 8 9 10 11 12 13 15 16 17 17 17 18 18 18 18
7 6 5 6 6 5 6 6 6 6 6 6 6 5 6 5 5 5 4 4 4 4 3 2 2 2 2 2 1 1 1 2 1 2 3 3 3 2 2 3 3 3 5 4 3 4 3 4 4 4 4 4 5 5 5 5 5 5 5 5 5 5 5 5 5 5 5 5 5 8 8 9 9 11 12 13 14 16 17 17 17 17 16 18 19
6 7 9 7 9 6 7 5 6 7 6 6 5 7 7 6 6 5 5 3 4 4 3 2 2 1 1 1 1 1 2 2 2 3 2 2 2 1 1 1 2 2 3 3 3 3 3 3 4 4 4 4 3 4 4 4 5 5 5 5 5 5 5 5 5 5 5 5 7 11 10 9 9 10 11 12 14 14 16 16 12 17 17 17 14
8 9 8 7 9 6 8 6 6 7 7 6 5 5 5 5 5 5 6 5 4 3 3 3 2 1 1 1 0 2 2 2 3 3 4 1 2 1 1 0 1 1 2 2 3 3 3 3 4 4 4 4 4 4 4 4 4 4 5 5 5 4 4 4 4 5 5 5 5 10 11 11 9 10 11 12 13 14 15 15 9 16 17 14 14
7 9 7 7 8 7 8 8 6 7 6 6 6 6 6 6 6 7 5 6 5 4 3 3 2 2 2 1 1 1 2 3 3 4 3 1 2 1 0 0 1 2 2 2 2 3 2 2 3 4 4 3 4 4 4 4 4 3 4 5 5 4 5 5 4 4 4 5 5 7 10 10 10 9 10 10 12 13 14 16 14 17 18 17 16
9 10 8 9 9 6 8 7 6 8 5 6 6 5 6 6 5 5 5 6 4 4 4 3 2 2 1 1 1 2 2 3 4 3 2 1 1 2 2 1 0 1 0 1 1 2 3 3 3 3 3 4 4 4 5 5 5 4 4 5 5 5 6 5 5 5 5 5 5 6 11 12 11 12 12 12 11 12 13 13 15 13 14 16 16
11 11 9 10 10 8 9 8 8 8 6 6 5 4 5 7 6 5 5 5 4 4 3 3 2 2 1 1 1 2 3 3 3 1 1 1 3 3 3 2 2 3 3 3 1 2 2 3 3 4 4 4 4 4 4 5 5 4 4 5 5 5 4 5 5 5 5 4 4 4 8 10 10 10 11 11 12 12 13 13 13 11 12 13 13
10 11 10 11 11 10 11 10 8 9 6 6 6 5 6 8 8 5 5 5 4 4 3 3 2 2 1 0 2 2 1 0 1 1 2 3 3 4 3 2 5 4 2 3 2 3 2 2 3 3 4 4 4 3 3 4 4 4 4 4 5 4 5 5 5 5 5 5 6 6 7 12 12 12 12 12 12 13 13 14 13 12 12 13 15
11 13 11 10 12 12 13 10 9 8 8 7 7 6 7 7 7 5 5 4 4 4 4 3 2 1 2 2 2 2 2 0 2 3 3 2 4 4 4 5 3 4 4 3 4 4 3 3 4 4 3 3 4 4 4 4 5 4 5 5 5 5 5 5 5 5 6 6 6 6 6 6 10 11 11 11 12 13 14 14 14 13 13 14 15
7 10 10 10 12 12 13 11 11 9 10 9 7 7 6 5 5 5 4 4 4 4 4 3 3 2 3 4 4 2 3 3 2 3 3 3 4 5 5 4 4 4 4 4 5 5 5 5 6 5 5 5 6 6 6 5 5 6 5 5 5 5 4 4 5 5 6 5 6 5 6 6 6 9 11 14 13 13 13 14 14 14 14 14 14
8 6 7 11 10 8 8 8 10 9 9 7 6 6 6 5 5 4 4 4 4 4 3 3 3 3 4 4 3 2 3 3 4 4 3 4 5 5 5 5 4 4 4 4 5 5 5 5 5 5 5 5 5 5 5 6 5 4 5 5 4 4 4 5 5 5 5 5 5 5 6 6 7 6 7 12 14 14 14 14 14 15 15 16 16
6 7 9 9 8 7 6 5 8 8 9 7 7 6 5 5 4 4 4 4 4 4 4 3 4 3 4 4 2 3 4 4 4 5 4 4 5 4 5 4 4 4 5 4 5 5 5 5 5 5 5 5 5 4 5 5 5 6 5 4 4 4 4 4 4 4 5 5 5 5 5 6 7 8 8 8 11 17 17 16 15 15 15 16 17
9 9 9 7 7 5 6 6 7 7 7 7 6 6 5 4 4 4 4 4 5 5 4 4 4 3 3 4 3 4 5 5 5 5 5 4 5 5 4 4 5 4 4 5 5 5 4 4 4 4 5 5 6 6 5 5 4 5 4 4 3 3 4 3 4 4 5 4 5 6 7 7 8 8 9 9 9 12 20 18 18 18 17 17 17
8 9 10 8 7 7 7 7 8 8 7 7 6 5 5 4 4 4 4 4 5 5 5 5 5 4 3 4 3 4 5 6 6 5 5 4 5 5 4 4 5 5 5 5 6 4 4 4 4 4 4 3 5 6 6 5 5 4 4 3 3 3 4 4 4 4 5 7 6 7 8 9 9 10 9 9 9 8 13 19 18 19 19 19 18
8 9 9 10 9 7 6 7 6 6 6 6 6 6 5 4 4 4 4 5 5 5 5 5 5 4 4 4 3 5 6 7 6 6 5 4 4 5 4 5 5 5 5 5 5 4 4 4 4 4 4 4 5 6 6 6 4 4 4 3 3 3 4 5 4 4 6 7 6 10 8 8 8 9 9 9 8 9 9 14 19 18 20 20 20
8 9 7 6 6 6 5 6 7 7 6 5 6 7 6 4 4 5 5 6 5 5 5 5 4 4 5 4 4 5 6 7 6 6 6 4 5 4 5 5 4 5 5 5 5 5 4 4 5 5 4 4 4 5 6 6 5 4 3 3 2 4 5 5 5 5 6 7 8 8 7 8 8 8 9 9 9 10 11 9 9 9 11 21 21
7 9 7 7 8 7 6 5 6 6 6 5 6 6 5 6 6 5 5 5 5 5 4 4 4 5 5 5 5 6 6 6 6 6 6 5 5 5 5 5 4 5 6 6 5 5 5 5 5 4 5 4 4 5 5 5 4 2 4 3 2 3 5 6 6 6 5 7 7 7 7 7 8 9 9 8 8 10 10 10 9 9 9 14 21
5 7 8 6 8 9 9 8 6 7 7 6 5 6 6 6 5 6 6 5 6 5 5 4 4 4 5 5 6 6 6 7 6 6 6 5 5 5 5 5 4 5 5 5 4 4 4 3 3 3 4 5 6 7 7 3 4 5 4 5 4 3 3 5 7 7 6 6 5 7 7 7 8 9 8 7 8 9 9 9 9 8 9 9 11
6 6 8 7 7 8 9 8 6 7 7 7 6 6 4 5 5 5 6 6 5 6 5 4 5 5 5 5 6 6 6 6 5 6 5 6 6 5 5 5 4 5 5 4 3 4 5 5 3 2 3 4 5 7 7 4 5 3 3 5 4 4 3 4 7 7 6 6 6 5 6 7 9 8 6 7 8 9 9 8 7 8 8 9 9
9 10 8 7 6 7 7 7 6 7 7 7 7 5 3 4 5 5 7 5 3 3 5 4 5 6 5 5 5 6 6 5 5 5 6 6 6 6 5 4 4 3 5 5 5 6 5 5 5 2 1 2 2 4 7 7 2 3 0 2 3 5 4 4 2 6 6 5 5 6 6 7 9 7 6 7 8 8 9 9 9 9 9 9 8
7 7 8 8 6 6 6 7 7 7 7 6 6 5 5 5 5 7 5 5 5 5 6 6 6 7 7 5 5 5 5 6 5 6 6 6 6 6 5 5 5 3 5 6 6 5 5 5 5 5 1 3 3 5 6 7 6 4 3 2 3 2 4 5 7 4 4 4 6 5 5 6 7 7 6 8 8 8 8 9 10 9 10 10 9
8 8 8 7 6 7 7 7 7 7 7 7 7 8 8 8 7 8 8 9 6 6 7 6 5 6 6 6 5 4 5 6 5 5 6 6 6 5 6 5 5 4 4 6 5 5 5 5 4 5 5 1 3 3 5 6 8 6 1 1 2 2 1 4 6 4 3 5 8 5 7 7 7 7 7 7 6 7 7 9 9 9 10 10 10
8 8 7 7 6 6 7 7 7 7 8 8 8 8 8 9 8 8 7 6 6 6 7 8 6 6 5 4 5 4 5 5 5 5 6 6 6 5 5 6 5 5 5 5 5 5 6 6 6 4 5 5 2 5 5 5 5 6 6 3 1 1 1 2 2 4 4 2 6 6 8 6 6 7 7 7 8 8 9 8 9 9 9 10 11
6 7 6 6 7 7 8 8 8 7 7 8 8 7 7 7 8 8 8 8 8 2 3 4 6 5 5 6 5 4 4 6 5 5 5 5 5 5 5 6 5 5 4 5 6 6 6 5 5 6 5 4 5 6 6 4 4 4 5 5 6 4 2 3 2 3 4 3 5 7 6 7 6 8 8 9 8 8 7 8 9 9 9 9 10
7 8 7 7 8 8 9 8 7 8 7 8 7 7 8 6 6 7 7 8 8 7 6 6 5 5 7 6 5 5 4 4 5 5 4 5 5 5 5 6 6 5 5 6 6 5 6 6 6 5 5 5 6 5 5 6 3 4 4 6 5 3 3 4 3 2 2 6 5 1 1 7 5 7 8 9 10 8 8 9 9 9 8 10 9
8 8 8 7 7 8 9 8 8 8 8 8 8 5 6 8 8 7 6 4 6 6 6 5 6 5 8 5 5 5 5 4 4 5 4 5 4 5 5 6 6 5 5 6 6 6 8 7 7 6 7 6 6 4 5 6 6 5 4 5 4 4 3 3 6 5 4 5 3 7 8 6 4 6 7 8 8 8 7 7 9 9 9 9 9
6 7 7 8 8 8 9 10 9 7 8 8 7 7 6 7 8 8 10 8 7 5 6 7 6 5 7 6 5 5 4 5 4 4 5 5 5 5 6 6 6 6 5 7 7 8 7 7 6 6 6 8 5 5 5 4 4 4 5 4 5 4 4 4 5 7 3 4 5 8 7 9 9 5 7 7 8 9 7 7 9 9 9 9 10
7 8 8 8 8 9 9 10 9 7 8 8 8 8 7 7 8 9 12 12 6 5 8 7 6 6 7 5 5 4 4 4 4 4 5 5 5 5 6 6 5 6 6 7 7 6 6 6 6 8 8 7 5 5 6 5 4 6 7 6 7 6 5 5 6 5 4 4 5 5 6 7 7 7 6 6 5 6 7 6 9 10 9 10 10
Wind_Direction
178 162 164 159 156 149 141 142 144 140 132 127 125 123 124 124 124 122 122 121 118 115 111 110 108 106 105 105 104 104 103 103 103 103 102 103 102 102 100 100 98 95 96 89 86 82 82 80 81 82 85 84 82 80 77 76 75 74 70 71 69 69 70 73 74 75 80 77 73 75 77 81 85 87 85 80 82 83 82 81 80 76 62 77 75
163 162 158 157 155 148 141 144 145 140 132 129 128 126 127 127 127 126 124 123 121 118 114 113 111 110 109 107 106 105 104 102 100 100 100 101 102 101 96 93 91 87 90 84 79 76 75 75 76 77 78 82 84 82 78 78 77 76 72 71 70 69 73 72 72 75 77 76 74 69 70 73 80 84 85 87 87 88 89 88 86 76 95 89 84
139 150 151 157 153 147 142 145 145 139 133 132 132 129 129 129 129 128 126 125 123 118 115 114 114 112 110 108 107 106 103 100 97 97 97 98 102 100 98 96 97 94 79 75 72 71 71 75 77 78 78 78 80 81 79 77 76 76 76 73 75 76 74 74 75 76 78 80 77 66 56 65 87 96 101 99 90 89 86 87 91 90 90 93 94
142 142 148 155 150 146 142 145 144 139 134 133 133 131 131 131 131 130 129 127 121 120 119 117 115 113 110 108 107 105 102 101 98 100 100 100 100 98 98 96 86 78 76 73 72 68 66 64 64 70 76 77 79 80 80 78 76 78 81 77 75 76 77 75 79 82 84 86 86 79 59 35 20 98 102 100 105 98 94 93 92 88 86 91 89
135 143 148 148 148 145 142 145 144 140 135 134 135 134 132 133 132 133 130 126 124 124 121 119 118 114 112 111 107 106 105 102 100 98 102 102 100 102 97 89 85 79 75 71 69 65 61 57 57 60 68 73 74 76 77 78 77 76 76 77 75 76 80 82 79 79 86 94 92 82 80 62 29 81 110 109 105 110 102 98 90 83 82 80 83
140 144 145 142 144 146 144 144 144 140 136 135 136 135 134 134 134 133 131 129 128 125 123 121 119 117 114 111 111 109 107 105 102 98 91 97 103 102 97 91 84 79 73 69 64 62 57 54 54 56 62 69 71 70 68 70 73 75 73 74 76 75 80 77 81 33 119 126 106 100 86 58 89 336 132 127 128 131 111 104 97 80 82 85 109
141 141 139 140 143 145 145 146 144 141 137 136 136 136 135 135 134 134 132 131 128 126 124 123 121 118 118 117 113 112 106 107 99 93 80 80 103 95 96 90 87 79 71 64 59 56 53 51 53 57 63 67 68 64 61 62 65 70 73 73 67 65 64 33 322 281 253 238 157 163 171 166 215 136 230 158 150 140 125 110 93 107 91 67 64
140 140 140 140 143 148 145 145 145 141 138 137 136 136 136 135 136 136 133 131 129 127 125 124 124 123 119 116 114 111 108 103 99 90 79 74 97 98 91 87 83 78 73 64 58 53 49 46 45 50 58 63 66 63 57 56 58 61 62 62 59 50 26 353 302 286 274 257 203 192 178 185 189 165 242 168 179 168 155 146 124 141 157 141 156
139 139 138 139 147 146 144 145 144 142 138 136 136 136 137 137 137 136 134 131 128 127 125 126 125 123 120 119 118 114 114 110 103 94 83 80 82 79 81 86 85 84 79 70 60 53 48 44 41 42 49 53 55 58 56 49 51 50 49 45 37 19 358 334 316 302 301 278 207 199 193 184 194 207 250 188 188 185 170 164 158 160 173 180 158
134 134 135 139 145 145 144 145 144 141 139 137 135 137 138 138 137 136 135 130 125 125 125 125 124 123 122 123 123 123 121 120 107 99 90 84 84 83 76 81 89 84 81 71 60 52 47 43 41 40 43 46 48 51 52 50 47 49 44 34 21 5 349 332 327 322 290 262 217 193 194 186 187 201 239 195 196 183 163 146 142 157 173 179 190
130 133 138 137 145 142 142 143 144 141 139 137 137 138 138 139 138 137 134 128 126 127 125 123 124 126 125 125 125 127 128 124 116 107 99 93 84 75 62 65 77 74 71 63 55 48 42 37 35 39 41 43 47 47 49 51 50 53 45 30 12 359 348 338 345 309 293 227 182 179 194 191 177 204 232 211 198 185 179 182 186 194 199 194 193
128 131 139 139 144 136 141 144 143 142 140 139 139 140 140 140 138 137 129 128 127 129 125 125 129 130 130 131 132 134 132 128 122 113 109 101 94 80 73 80 83 70 65 59 53 44 35 27 25 28 30 32 31 34 36 38 42 44 40 25 8 358 355 358 356 342 65 114 142 172 188 188 176 210 222 215 197 197 204 202 204 201 200 200 205
126 138 135 138 130 141 141 148 145 144 142 141 141 142 141 141 137 132 126 128 131 130 128 131 132 134 137 138 139 133 124 117 117 119 115 107 101 94 81 89 95 79 67 59 51 37 24 13 9 9 12 15 14 14 15 19 22 27 22 10 2 359 8 2 14 13 101 122 149 165 186 174 183 212 220 220 206 212 212 217 211 204 209 207 198
134 139 136 130 136 142 145 147 146 145 144 144 142 142 142 141 134 126 128 130 128 127 129 131 134 137 137 135 131 128 123 118 116 128 124 110 106 98 91 83 73 73 68 54 42 29 12 2 359 0 1 4 4 5 6 7 10 16 14 5 352 351 8 359 18 11 155 158 171 174 184 187 194 213 224 224 217 216 224 228 223 217 216 211 212
142 145 134 134 140 141 146 147 146 145 145 144 142 142 140 132 125 129 129 128 128 129 131 133 138 139 135 130 123 121 119 118 116 118 119 117 102 96 94 86 82 77 63 43 24 11 6 359 357 353 352 353 353 355 357 359 358 359 360 358 341 341 348 23 351 329 273 205 199 194 198 196 208 215 223 225 220 223 226 228 227 220 218 219 220
135 134 132 135 139 142 147 150 147 145 144 146 144 139 134 130 129 131 130 131 131 131 133 137 138 135 131 125 121 117 115 113 109 108 112 111 100 99 91 84 81 67 42 27 8 360 358 352 350 346 346 348 348 349 349 349 347 342 340 336 311 324 323 127 316 289 238 243 217 215 208 216 217 218 224 227 224 224 225 224 225 221 222 222 219
134 130 131 136 136 138 149 150 148 148 150 149 144 138 135 133 133 132 131 132 134 134 138 140 137 134 130 125 119 114 113 112 112 113 114 111 108 100 99 91 83 89 15 358 346 343 342 340 340 338 339 341 340 340 340 339 335 332 323 318 306 287 306 163 268 276 229 238 216 222 213 214 225 223 226 229 228 226 225 224 224 221 223 220 214
131 135 137 139 136 142 148 150 152 147 149 148 141 139 138 136 136 133 134 137 138 138 139 141 139 136 131 127 121 117 113 111 111 111 111 110 110 110 107 97 90 80 5 341 332 332 332 331 330 331 335 335 335 333 333 330 329 325 320 317 322 322 328 159 250 261 255 245 222 222 215 224 225 227 229 232 231 230 226 226 223 221 221 220 214
134 137 139 142 147 148 151 149 152 149 150 146 145 143 142 140 137 134 139 139 136 139 141 144 140 137 134 128 123 120 119 116 110 110 110 115 112 108 112 91 102 43 347 319 314 323 322 324 328 332 330 329 329 328 327 326 325 324 324 323 325 332 346 332 267 256 267 274 249 224 220 225 227 228 230 233 234 235 236 230 224 223 222 219 215
137 142 147 149 153 153 153 153 156 155 151 145 142 141 145 143 140 137 138 137 141 141 144 144 142 136 131 124 121 101 90 99 110 103 113 107 99 120 124 111 115 64 345 323 315 317 322 324 325 323 323 323 321 321 320 321 321 321 322 322 324 332 348 299 280 265 260 265 258 232 239 232 227 228 231 233 236 238 242 238 229 226 229 226 221
149 150 156 158 160 162 157 154 156 152 146 141 136 136 150 145 143 141 140 141 142 143 145 143 138 139 123 125 82 77 81 54 44 51 65 95 126 106 90 104 86 25 333 323 316 318 319 318 315 316 317 313 312 313 315 313 313 314 315 316 322 327 318 311 284 275 259 244 259 249 246 244 236 232 235 236 236 238 241 240 237 237 238 232 228
162 161 165 163 163 164 159 152 149 147 145 140 135 140 146 140 130 131 129 139 143 143 133 136 136 70 118 100 88 78 81 67 65 37 28 12 6 332 275 214 239 307 311 311 316 314 313 314 316 315 314 312 311 311 309 307 303 302 304 313 323 314 313 316 312 296 284 272 259 251 255 252 246 243 239 239 238 238 238 237 238 242 242 237 232
164 167 167 165 163 155 159 153 151 149 145 140 138 143 132 126 125 122 127 139 143 126 113 118 88 120 106 106 106 68 77 67 347 242 225 222 236 287 330 326 288 280 287 308 311 319 323 324 323 321 317 317 321 305 299 298 300 305 311 316 306 308 309 313 310 296 288 286 279 267 261 252 252 251 248 244 239 236 235 233 231 236 241 239 233
166 167 161 155 152 160 163 161 156 150 148 148 144 139 133 126 121 120 118 118 107 114 118 116 125 130 123 110 91 109 70 50 344 345 353 17 14 358 343 343 344 350 346 357 340 330 328 320 313 313 320 324 317 316 315 308 307 314 314 313 315 314 314 310 306 305 296 292 285 283 274 264 257 257 257 254 247 241 238 236 234 237 241 240 235
159 152 154 157 165 171 163 169 152 149 150 152 149 139 132 127 127 128 125 110 113 123 135 121 129 118 121 107 97 57 40 33 360 335 340 356 357 353 346 342 344 335 353 338 345 331 336 326 332 335 339 330 331 321 328 323 321 325 325 322 318 320 317 311 309 307 308 306 294 292 281 276 272 267 264 261 256 250 245 242 243 248 247 240 238
153 168 171 165 175 173 167 171 158 158 156 160 154 147 139 140 138 136 134 109 124 137 135 147 131 135 120 121 344 8 343 328 326 305 317 316 319 278 6 335 337 326 338 322 324 325 325 328 331 328 324 324 313 307 311 305 308 313 312 315 316 316 316 315 316 315 312 318 312 312 308 297 284 281 280 277 270 264 259 253 266 274 258 245 239
174 178 169 169 174 173 172 172 174 159 156 155 149 148 141 140 140 141 150 157 148 151 171 173 179 169 108 201 23 335 324 326 310 289 274 229 264 241 190 212 267 287 284 285 317 319 315 327 326 316 312 317 317 316 310 306 297 299 305 307 313 307 311 310 312 308 307 305 302 303 303 299 291 293 292 290 287 277 266 257 234 254 264 262 255
167 172 160 165 181 174 176 172 180 159 154 150 157 151 146 148 151 154 154 168 164 180 197 192 189 200 216 197 279 144 286 307 298 276 267 202 240 224 102 84 206 219 229 211 275 333 334 306 314 312 323 335 338 327 327 318 319 309 305 310 315 322 323 319 313 308 307 303 306 311 310 301 302 297 292 291 292 288 279 267 231 230 247 256 257
173 172 157 166 182 176 178 174 176 160 152 151 168 152 149 151 144 158 144 181 172 185 187 181 172 183 190 144 263 290 287 281 281 268 222 199 334 48 70 105 187 250 54 34 132 321 348 1 319 318 338 352 350 345 339 333 330 327 330 321 333 335 334 330 327 324 323 324 321 319 319 315 314 316 317 314 311 307 296 288 276 255 260 265 271
181 169 162 169 177 179 178 179 174 166 156 158 168 141 142 152 159 168 170 177 167 178 159 153 169 150 157 178 238 242 259 272 288 301 118 52 61 53 59 23 3 16 48 23 62 104 21 354 1 11 7 358 355 341 343 326 327 331 335 333 329 328 318 319 327 329 324 323 319 314 326 331 328 328 324 325 325 321 313 303 296 282 272 272 266
165 168 174 174 177 177 184 177 175 172 155 161 162 145 143 166 175 181 169 182 146 144 139 142 133 163 176 176 245 243 287 317 269 164 72 81 78 82 70 61 47 23 39 24 14 58 99 83 42 7 8 359 349 327 346 334 326 328 341 331 331 330 338 338 333 341 350 348 350 346 344 348 345 340 337 335 333 335 334 330 320 308 289 277 277
174 180 181 172 173 179 184 175 173 175 165 159 163 153 161 171 178 173 177 158 138 133 137 143 159 153 111 117 120 125 123 133 219 106 74 74 88 70 52 62 47 23 30 47 49 41 50 32 37 27 26 30 355 360 351 349 333 335 340 345 344 347 350 347 352 354 357 1 357 355 353 353 354 353 346 345 350 348 344 336 328 318 313 302 296
188 178 172 170 177 179 181 179 172 179 170 168 167 162 168 174 176 181 157 147 140 130 137 152 134 135 119 120 90 128 164 170 90 58 63 77 85 86 85 89 69 54 40 44 46 28 32 22 16 6 20 13 11 355 345 344 341 342 340 344 347 347 351 354 357 358 6 359 1 358 8 5 3 3 3 7 360 354 349 343 337 332 328 321 313
167 173 174 183 183 183 180 175 172 169 170 167 159 158 170 174 175 161 147 142 141 128 131 140 140 123 125 113 131 188 108 97 106 87 98 91 98 104 109 82 74 63 57 41 48 35 36 33 8 15 13 19 2 339 344 338 335 335 345 341 343 342 347 355 2 355 350 6 355 8 9 10 14 11 9 8 9 4 357 348 343 335 330 329 325
152 168 188 191 186 181 172 169 173 162 169 167 162 164 166 168 154 151 155 150 134 127 128 115 105 130 124 114 126 100 86 91 94 103 77 97 89 85 78 82 78 66 64 43 63 46 45 36 17 19 356 9 355 332 340 323 328 332 331 339 333 339 354 358 349 359 6 358 12 19 14 17 14 18 15 16 15 18 14 8 1 352 346 342 339
171 177 182 182 192 180 169 162 164 166 170 169 164 162 160 153 155 160 151 137 126 120 116 113 116 124 115 108 106 98 90 89 96 100 93 88 101 89 80 79 67 58 54 47 52 41 24 37 26 44 18 356 353 333 334 323 327 317 323 330 327 346 356 357 5 6 1 8 26 21 22 21 20 21 22 23 21 21 22 22 21 14 8 0 354
168 172 178 178 186 179 171 162 169 171 168 168 162 151 132 148 158 152 145 126 120 120 120 121 121 125 121 100 96 96 96 96 91 90 101 101 93 88 60 55 66 70 59 52 53 33 34 26 24 31 58 346 341 321 318 323 323 318 314 332 342 352 21 15 11 13 7 31 22 25 27 24 25 27 28 27 25 18 21 22 23 19 14 10 5
167 176 179 175 176 176 172 165 162 162 166 172 159 138 132 135 130 126 120 109 113 119 124 125 127 132 111 101 104 107 102 101 100 98 95 91 84 84 69 57 67 73 68 55 44 30 35 40 28 14 24 14 344 339 326 322 317 314 323 343 354 21 29 27 20 21 26 25 22 31 29 31 26 30 28 28 24 24 21 20 20 15 12 12 9
170 172 171 156 151 160 155 164 157 160 158 148 139 121 113 105 104 112 106 105 103 101 117 115 124 113 111 129 124 111 106 99 97 98 96 89 85 74 69 55 72 79 75 62 41 24 22 24 45 7 4 1 347 326 321 313 315 308 307 342 357 42 35 41 30 27 29 26 30 30 34 34 34 32 31 28 26 25 24 19 16 9 6 10 10
175 164 157 148 145 144 150 147 158 152 133 129 127 117 127 140 129 110 101 111 113 114 103 110 111 116 135 130 124 114 107 102 97 96 95 87 79 72 77 65 70 78 73 60 35 27 8 2 8 18 358 340 350 336 341 335 305 327 330 355 35 15 46 42 35 32 25 24 26 31 38 36 40 34 32 28 28 30 25 17 18 13 7 6 9
175 160 150 154 157 156 154 161 163 152 140 134 132 142 150 142 133 143 135 136 126 118 106 105 114 135 134 126 118 111 106 99 97 102 101 96 87 85 84 66 66 76 78 73 53 20 10 8 347 4 14 5 1 351 345 330 13 358 2 354 342 24 14 48 46 31 22 20 20 30 38 48 44 38 29 25 28 30 28 21 14 12 10 6 3
178 164 162 163 163 157 161 157 160 153 137 140 149 165 168 162 143 144 136 132 128 125 119 128 137 124 114 112 106 102 96 100 105 106 106 109 102 89 80 75 72 76 77 73 59 37 29 34 36 25 26 36 18 355 352 0 28 20 342 333 342 341 26 24 46 24 17 21 17 27 40 52 50 40 29 27 27 24 27 21 13 8 11 9 7
175 172 164 151 159 159 155 154 163 144 137 149 152 155 140 144 143 146 142 109 54 91 121 135 120 107 89 86 90 94 100 97 108 112 107 103 105 100 89 86 64 75 85 65 58 46 30 26 21 59 315 350 9 1 19 36 38 341 68 329 15 360 330 360 19 25 10 5 19 24 35 53 58 48 33 34 29 24 23 17 15 10 7 10 5
172 175 163 158 159 157 154 154 151 140 142 155 148 129 116 97 85 115 95 101 133 124 101 98 100 96 84 76 68 89 96 101 103 103 101 103 107 104 105 87 79 69 93 83 61 54 37 29 19 12 62 33 357 10 25 31 38 9 29 35 2 41 349 351 331 324 331 14 27 16 31 50 60 51 36 37 27 25 22 17 15 9 7 7 5
179 174 169 166 163 163 154 147 141 137 139 144 136 128 114 97 98 82 92 89 78 97 102 84 89 99 94 73 73 84 97 101 100 105 107 104 99 105 100 98 92 75 84 87 75 64 56 46 31 33 31 112 26 359 10 21 33 27 42 128 35 52 132 288 312 292 355 9 12 18 25 37 56 51 43 40 32 27 21 20 14 8 7 3 5
178 171 166 163 149 147 140 133 130 132 141 141 146 143 139 135 131 125 120 113 117 122 129 136 125 109 103 99 75 74 96 92 90 97 99 101 100 99 101 99 92 86 83 90 92 72 50 45 34 41 39 23 97 42 13 349 32 29 27 45 157 160 343 284 19 330 348 342 17 8 26 20 53 55 52 43 32 22 20 20 12 9 4 5 3
167 156 153 153 146 143 141 139 138 135 138 145 153 141 132 141 143 139 136 138 131 88 90 96 111 99 97 89 83 63 65 95 85 87 92 93 95 92 97 96 93 92 88 85 72 66 59 51 36 43 40 29 37 60 32 343 333 19 13 25 42 40 72 28 18 285 326 341 45 354 18 15 40 53 46 43 35 26 20 16 11 6 3 4 4
145 153 154 152 151 148 144 142 140 142 147 149 152 151 140 138 123 123 132 139 138 136 127 105 93 106 98 94 91 75 66 75 94 83 84 88 92 87 91 93 90 83 81 72 73 67 66 50 48 46 46 42 46 58 48 27 46 349 349 18 16 54 54 63 30 339 312 326 331 340 43 16 25 58 52 42 33 26 17 15 11 8 2 3 2
148 158 159 154 147 146 141 140 142 144 147 151 146 145 139 139 133 128 110 86 109 117 115 105 106 104 101 92 90 88 78 64 70 86 73 75 80 95 93 90 86 80 79 78 72 66 64 61 48 45 44 44 45 46 59 43 40 25 2 8 1 18 8 51 31 8 36 359 336 357 349 358 22 40 50 42 36 25 16 15 15 9 4 2 0
141 142 146 148 150 147 146 147 147 147 146 145 137 127 125 125 125 130 121 115 112 106 106 115 111 111 106 101 98 96 96 86 74 75 82 76 84 89 90 90 93 92 80 83 80 70 61 63 57 62 56 59 31 45 57 46 47 39 44 33 34 4 23 12 25 17 13 45 347 344 349 351 360 12 37 34 33 23 11 10 15 9 5 0 360
141 144 148 152 151 152 150 150 147 141 145 140 131 125 124 127 127 127 127 124 111 133 126 123 124 116 117 116 113 109 97 101 91 70 74 83 86 85 92 91 85 84 81 79 75 75 68 70 66 62 57 55 44 49 53 47 46 44 35 40 48 45 44 39 9 3 10 2 346 351 344 356 342 351 31 22 30 33 13 11 16 10 4 359 358